Home   Weather   Summit Camp   Past weeks
Flag for Greenland

Past Weather in Summit Camp, Greenland — Yesterday and Last 2 Weeks

Now
31 °F

Chilly.


Feels Like: 31 °F
Forecast: 0 / -16 °F
Wind: 2 mph from Northwest

Location: Aputiteeq

Current Time: Aug 21, 2019 at 7:21:33 am

Latest Report: Aug 21, 2019 at 6:00 am


Visibility: N/A

Pressure: 29.94 "Hg (20.03 "Hg at 3207m altitude)

Humidity: 100%

Dew Point: 31 °F

Location of Summit CampLocation

Past Weather in Summit Camp — Graph

°F

Summit Camp Temperature Yesterday

Maximum temperature yesterday: 38 °F (at 2:00 pm)
Minimum temperature yesterday: 29 °F (at 2:00 am)
Average temperature yesterday: 34 °F

High & Low Weather Summary for the Past Weeks

 TemperatureHumidityPressure
High46 °F (Aug 6, 2:00 pm)100% (Aug 7, 9:00 pm)30.22 "Hg (Aug 7, 9:00 pm)
Low29 °F (Aug 20, 2:00 am)53% (Aug 16, 2:00 pm)29.82 "Hg (Aug 15, 5:00 pm)
Average37 °F91%30.01 "Hg
* Reported Aug 6 5:00 am — Aug 21 5:00 am, Summit Camp. Weather by CustomWeather, © 2019

Note: Actual official high and low records may vary slightly from our data, if they occured in-between our weather recording intervals... More about our weather records

Advertising

Summit Camp Weather History for the Previous 24 Hours

Scroll right to see more
 ConditionsComfort  
Time TempWeatherWind HumidityBarometerVisibility
5:00 am
Wed, Aug 21
31 °FChilly.5 mph100%29.93 "HgN/A
4:00 am31 °FChilly.7 mph100%29.93 "HgN/A
3:00 am31 °FChilly.3 mph100%29.93 "HgN/A
2:00 am32 °FChilly.5 mph100%29.94 "HgN/A
1:00 am35 °FChilly.3 mph98%29.94 "HgN/A
12:00 am34 °FChilly.3 mph98%29.95 "HgN/A
11:00 pm
Tue, Aug 20
34 °FChilly.9 mph100%29.95 "HgN/A
10:00 pm35 °FChilly.6 mph98%29.95 "HgN/A
9:00 pm35 °FChilly.6 mph98%29.93 "HgN/A
8:00 pm35 °FChilly.9 mph99%29.92 "HgN/A
7:00 pm35 °FChilly.10 mph97%29.91 "HgN/A
6:00 pm36 °FChilly.10 mph95%29.90 "HgN/A
5:00 pm38 °FChilly.8 mph91%29.89 "HgN/A
4:00 pm37 °FChilly.7 mph94%29.88 "HgN/A
3:00 pm38 °FChilly.5 mph86%29.87 "HgN/A
2:00 pm38 °FChilly.1 mph85%29.86 "HgN/A
1:00 pm37 °FChilly.2 mph90%29.86 "HgN/A
12:00 pm36 °FChilly.3 mph93%29.86 "HgN/A
11:00 am35 °FChilly.2 mph95%29.85 "HgN/A
10:00 am34 °FChilly.5 mph97%29.85 "HgN/A
9:00 am33 °FChilly.5 mph99%29.84 "HgN/A
8:00 am33 °FChilly.6 mph100%29.83 "HgN/A
7:00 am32 °FChilly.6 mph100%29.83 "HgN/A
Weather by CustomWeather, © 2019

See weather overview